Dewpoint
52 53 53 53 53 53 52 50 51 52 51 51 51 51 51 51 51 50 47 40 37 52 52 30 29 23 18 13 17 19 15 14 14 13 15 13 12 14 15 25 24 29 40 41 59
52 52 52 53 52 52 53 52 51 50 50 50 51 50 50 50 49 47 48 51 52 56 33 16 17 17 12 14 17 15 15 14 15 15 14 14 14 14 15 19 23 28 26 39 61
52 52 52 52 52 53 51 51 51 52 50 50 50 50 50 50 45 31 51 54 56 58 24 20 17 18 14 17 15 15 14 15 15 16 17 15 15 16 14 15 20 25 26 22 40
53 53 53 52 52 52 53 51 51 52 52 51 50 50 50 49 2 36 59 55 57 49 27 19 14 14 17 15 16 13 14 14 15 14 18 15 15 15 16 14 19 19 26 23 21
54 55 54 54 53 53 53 52 51 51 52 51 50 50 48 42 28 20 63 57 51 42 22 15 14 17 15 15 16 13 13 12 13 13 14 16 14 15 14 16 18 17 21 19 19
53 54 54 54 54 53 53 52 52 51 52 52 51 50 46 19 14 44 52 49 43 26 19 14 13 20 20 15 12 13 12 12 13 12 13 14 13 14 15 18 17 17 16 16 17
53 54 53 54 54 52 52 51 52 52 51 51 50 49 46 30 41 47 46 45 39 25 21 16 19 24 22 18 15 14 13 13 13 14 13 14 12 13 15 16 15 15 14 16 19
55 54 53 54 54 53 51 51 52 51 51 51 51 49 42 42 42 36 35 27 26 23 21 17 21 23 23 22 19 18 14 12 13 16 13 12 11 14 16 15 16 16 15 16 18
54 54 53 53 53 53 53 51 51 52 53 51 49 45 39 48 44 40 34 26 25 22 22 19 24 24 24 19 17 16 13 13 13 15 15 13 10 14 17 15 16 16 16 17 18
53 53 51 52 52 53 52 51 50 52 51 50 49 44 42 37 36 37 34 29 26 25 24 22 23 22 20 19 14 15 14 13 13 15 15 13 13 15 16 16 16 17 18 19 21
52 52 52 52 53 53 49 46 48 44 47 40 39 41 38 41 32 26 29 30 31 26 21 25 21 19 20 20 19 18 16 15 16 17 16 12 13 15 17 14 14 15 17 21 23
54 53 52 53 53 52 49 43 43 44 40 45 42 42 41 42 37 24 23 21 24 16 21 21 20 21 21 21 21 19 18 16 16 16 14 15 15 17 17 16 14 14 17 21 22
53 53 52 53 52 49 46 44 44 42 34 37 43 42 41 42 39 19 15 26 21 17 19 19 20 23 22 21 21 20 17 17 16 18 19 17 15 15 17 19 19 20 20 21 22
53 53 52 53 47 46 45 45 45 42 35 34 38 39 41 33 29 17 16 24 28 19 20 19 21 21 20 20 21 19 21 20 19 17 12 17 12 15 16 18 18 18 18 20 22
53 52 52 52 45 44 44 43 44 40 31 31 37 37 32 27 28 28 22 28 26 24 22 20 23 22 21 20 20 18 21 21 19 16 15 16 12 14 17 14 15 23 23 27 35
53 52 52 48 47 46 46 46 40 34 34 31 28 26 26 28 28 28 22 28 28 25 24 22 25 24 22 23 25 26 20 20 21 18 13 14 14 15 14 18 30 33 35 36 37
53 52 50 47 43 46 45 40 33 32 40 36 27 26 27 26 27 27 26 25 24 21 22 23 22 23 25 23 31 24 18 15 14 14 14 24 22 22 26 36 37 34 35 35 36
51 50 49 48 47 44 39 35 32 38 37 40 27 27 26 27 27 27 27 25 28 24 23 21 23 29 32 30 29 28 22 18 13 15 16 28 21 24 37 39 36 36 36 36 35
50 44 46 46 47 44 39 35 37 41 40 36 29 25 28 33 27 28 27 27 33 28 24 24 27 32 33 32 31 30 29 28 26 29 26 25 26 30 38 39 40 41 39 39 38
45 44 45 47 46 45 41 39 42 43 40 34 30 34 34 34 32 32 33 37 35 35 31 33 26 34 34 31 31 30 34 29 30 23 21 25 26 25 35 37 39 39 41 41 42
44 44 44 47 45 42 42 42 40 40 34 33 32 32 33 31 32 32 33 35 35 35 35 34 30 30 31 30 29 29 27 30 31 31 24 24 26 31 36 37 36 36 37 39 41
42 41 46 45 40 44 42 43 41 31 32 31 32 33 33 32 32 32 33 35 34 35 33 36 33 30 30 32 33 30 32 32 26 26 34 35 31 36 36 33 33 33 34 37 37
39 41 46 43 39 40 43 39 35 33 32 32 31 34 34 30 28 32 35 35 36 37 35 33 30 24 17 22 29 31 34 36 34 32 30 26 28 37 35 33 33 34 35 35 39
41 39 36 41 42 36 34 32 33 32 31 30 30 32 31 30 30 29 33 37 38 39 41 37 32 25 20 16 29 29 31 31 32 30 27 30 30 31 32 32 33 34 37 36 35
43 39 37 34 33 32 31 29 32 30 30 33 32 31 29 28 28 29 31 34 37 39 34 30 26 31 30 31 32 31 31 30 28 29 27 27 27 28 30 31 35 33 33 32 32
39 37 39 38 37 33 33 32 31 30 31 32 31 32 31 29 29 29 29 31 31 38 33 33 27 31 31 32 32 30 30 30 28 28 28 28 27 32 34 31 31 31 31 31 31
44 44 40 38 36 33 33 32 33 32 32 32 32 32 32 32 33 34 33 33 33 33 32 32 31 28 25 30 29 25 27 26 26 29 30 30 32 37 36 35 34 33 31 31 32
Lifted_Index
10 9 9 9 9 9 9 9 8 8 8 8 9 10 10 11 11 10 9 9 10 11 11 10 10 10 10 9 7 4 3 3 3 3 3 4 4 5 5 4 2 -0 -1 -1 -1
10 10 10 10 10 10 10 10 9 8 8 9 10 10 10 11 10 10 9 10 10 10 10 10 10 10 9 8 7 5 3 3 3 3 3 3 4 5 5 4 2 0 -0 0 -0
10 10 10 10 10 10 10 10 10 9 9 9 10 10 10 10 9 8 8 9 9 9 10 11 10 9 8 8 8 6 5 4 4 4 3 3 4 5 5 4 4 2 2 3 2
9 9 10 10 10 10 10 11 10 10 9 10 10 10 10 9 7 6 6 7 8 9 11 11 10 9 7 7 8 7 6 5 5 5 5 4 5 5 5 5 5 5 5 5 6
9 9 9 9 10 10 10 11 11 10 10 10 10 11 10 8 7 5 4 5 7 9 10 10 10 8 7 7 8 8 7 6 6 6 6 6 6 6 6 6 6 6 6 7 7
9 9 9 9 9 10 10 10 11 11 11 11 11 11 10 8 7 6 5 6 8 9 10 10 9 9 8 8 9 8 8 7 7 7 7 7 7 7 7 7 7 6 6 7 7
9 8 8 9 9 10 10 10 10 11 11 11 10 10 9 8 7 6 7 8 9 10 10 9 9 9 9 9 9 9 8 8 8 8 8 7 7 7 7 7 7 7 6 6 7
9 8 8 9 9 10 10 10 10 10 10 10 10 9 8 7 6 6 7 8 9 10 10 10 9 8 8 9 9 8 7 7 7 7 7 7 7 7 7 7 7 7 6 6 6
9 9 8 9 9 10 10 10 10 10 10 10 9 8 7 6 6 6 7 7 8 8 9 9 8 8 8 7 7 6 6 5 5 6 6 6 6 6 7 7 7 7 6 6 6
9 9 9 9 9 10 10 9 9 9 9 9 9 7 6 5 5 6 6 6 6 6 7 7 7 6 6 5 4 4 4 4 4 5 6 6 7 7 7 7 7 6 6 6 6
9 9 9 9 10 10 9 8 8 8 8 8 8 6 5 5 5 6 6 6 6 6 6 6 5 5 5 5 4 4 4 4 4 4 5 6 7 7 7 6 6 6 6 6 6
9 9 9 10 10 9 8 7 7 6 6 6 6 5 5 5 5 6 7 6 6 6 6 6 5 5 5 5 5 5 4 4 4 4 5 6 6 7 6 6 6 6 6 6 6
9 9 10 10 9 8 7 6 6 6 5 5 5 4 4 4 5 6 7 6 6 6 6 6 6 6 6 6 5 5 5 5 4 4 5 5 5 6 6 5 6 6 6 6 6
9 10 10 9 8 7 6 6 6 5 4 3 4 4 4 4 5 6 7 6 5 6 6 6 6 6 6 6 6 5 5 5 5 5 5 5 4 5 5 5 5 5 5 5 5
10 10 10 9 7 6 5 5 5 4 3 2 3 3 4 4 4 5 6 6 5 5 6 6 6 6 5 5 5 5 5 5 5 5 5 4 4 4 4 4 4 4 4 4 4
9 9 9 7 6 5 5 5 4 3 2 2 3 3 3 4 4 4 5 5 5 5 5 5 5 5 5 5 5 5 4 4 4 4 4 4 4 4 4 4 3 3 3 3 3
8 8 7 6 6 5 4 4 3 2 1 1 2 3 3 3 4 4 4 5 5 5 5 5 4 4 4 4 4 4 3 3 2 2 3 4 4 4 4 3 3 3 3 2 2
6 6 5 6 5 5 3 3 2 1 0 1 2 2 3 3 3 4 4 4 4 4 4 4 4 3 3 3 3 3 3 2 1 1 2 3 3 3 3 2 2 3 3 2 2
4 4 4 4 4 4 2 2 1 1 0 1 1 2 2 2 2 3 3 3 3 3 3 3 3 3 3 2 2 2 2 2 1 1 2 3 3 2 2 1 2 2 2 2 2
3 2 3 3 3 2 1 1 1 1 1 1 1 1 1 1 1 2 2 2 2 2 2 2 2 2 2 2 2 2 1 1 1 1 1 2 2 2 1 1 1 1 1 2 2
1 1 2 3 2 1 1 1 1 1 2 2 2 1 1 1 1 1 1 2 2 2 2 2 2 2 2 2 2 2 2 2 2 1 1 2 2 2 2 1 1 1 1 1 2
0 1 2 2 1 1 0 0 1 2 2 2 2 2 2 2 2 2 2 2 2 2 2 2 2 2 2 3 3 3 3 3 3 2 2 2 2 2 2 1 1 2 2 2 2
0 1 1 1 1 0 0 1 2 2 3 3 3 3 2 2 2 2 2 2 2 3 3 3 3 3 3 4 4 4 4 4 3 3 3 3 3 3 2 2 3 3 3 3 3
1 1 1 1 0 1 1 1 2 2 3 3 3 3 3 3 3 3 3 3 3 3 4 4 4 4 4 4 5 5 5 4 4 4 4 4 4 4 4 4 4 4 3 2 2
1 1 1 1 1 1 1 1 1 2 2 3 3 3 3 3 3 3 3 3 3 4 4 4 4 5 5 5 6 5 5 5 5 5 5 5 5 5 4 4 3 3 2 2 1
1 1 1 1 1 1 1 1 1 2 2 3 3 3 3 3 3 4 4 4 4 4 4 4 4 4 5 5 6 5 5 5 5 5 4 5 4 4 3 3 2 2 1 1 1
2 2 1 1 1 1 1 2 2 2 2 2 3 3 3 3 4 4 4 4 4 4 4 4 4 4 4 5 5 5 5 5 4 4 4 4 3 3 2 2 1 1 1 1 1